Regional Weather Roundup
Issued by NWS

Home | Current Version | Previous Version | Graphics & Text | Print | Product List | Glossary On
Versions: 1 2 3 4 5 6 7 8 9 10 11 12 13 14 15 16 17 18 19 20 21 22 23 24 25 26 27 28 29 30 31 32 33 34 35 36 37 38 39 40 41 42 43 44 45 46 47 48 49 50
080
ASUS44 KJAN 250803
RWRMS

MISSISSIPPI HOURLY WEATHER ROUNDUP
NATIONAL WEATHER SERVICE JACKSON MS
200 AM CST SUN JAN 25 2015

NOTE: "FAIR: INDICATES FEW OR NO CLOUDS BELOW 12,000 FEET WITH NO
SIGNIFICANT WEATHER AND/OR OBSTRUCTIONS TO VISIBILITY.

MSZ001>002-007>008-010>013-018>021-025>028-034>036-250900-
NORTHWEST MISSISSIPPI

CITY           SKY/WX    TMP DP  RH WIND       PRES   REMARKS
CLARKSDALE     FAIR      41  36  81 S8        29.93S
CLEVELAND      FAIR      38  36  92 S8        29.93F WCI  32
GREENWOOD      CLEAR     40  34  79 SW7       29.96S
GREENVILLE     CLEAR     41  33  73 SW8       29.94F
GRENADA        FAIR      30  30 100 CALM      29.95F
OLIVE BRANCH   CLEAR     34  34 100 S9        29.90S WCI  26
OXFORD         FAIR      37  32  81 S5        29.94S WCI  34
TUNICA         SUNNY     36  32  87 S9        29.90F WCI  29
$$

MSZ003>006-009-014>017-022>024-029>033-037>039-250900-
NORTHEAST MISSISSIPPI

CITY           SKY/WX    TMP DP  RH WIND       PRES   REMARKS
COLUMBUS AFB   CLEAR     31  28  89 S3        29.96F
CORINTH        FAIR      34  30  86 SE5       29.90S WCI  30
GOLDN TRIANGLE CLEAR     34  28  80 S6        29.95S WCI  29
STARKVILLE     FAIR      32  32 100 CALM      29.96F
TUPELO         CLEAR     38  31  76 MISG      29.93F
$$

MSZ040-058-250900-
CENTRAL MISSISSIPPI

CITY           SKY/WX    TMP DP  RH WIND       PRES   REMARKS
JACKSON INTL   PTCLDY    40  33  76 SW3       29.99F
JACKSON HAWKNS PTCLDY    39  33  79 CALM      30.00S
MERIDIAN KEY   CLEAR     31  29  92 S5        30.00F WCI  26
MERIDIAN NAS   CLEAR     41  32  70 W8        29.99F
RAYMOND        FAIR      39  36  87 SW5       30.00S
VICKSBURG      PTCLDY    43  35  73 VRB3      30.01R
$$

MSZ059>079-250900-
SOUTH MISSISSIPPI

CITY           SKY/WX    TMP DP  RH WIND       PRES   REMARKS
BROOKHAVEN       N/A     37  37 100 S5        30.04R WCI  34
HATTIESBURG    CLEAR     42  35  76 SW7       30.05F
MCCOMB         PTCLDY    38  34  85 SW5       30.04S WCI  34
NATCHEZ        PTCLDY    45  39  81 SW9       30.03S
PINE BELT      CLEAR     39  30  70 SW5       30.03S
$$

MSZ080>082-250900-
COASTAL MISSISSIPPI

CITY           SKY/WX    TMP DP  RH WIND       PRES   REMARKS
BILOXI         CLEAR     45  40  82 W5        30.08R
PASCAGOULA     PTCLDY    41  39  93 W3        30.08R
GULFPORT       CLEAR     43  39  86 W5        30.08R
$$



USA.gov is the U.S. government's official web portal to all federal, state and local government web resources and services.